DLR-TUBSAT

Last updated on Sun Apr 12 2026 00:02:34 GMT+0000 (Coordinated Universal Time)

1 25757U 99029B 26101.26271669 .00000087 00000+0 33326-4 0 9999 2 25757 98.6687 94.5709 0013971 189.1246 170.9697 14.52409792423537
UTC large
Height (km)
Speed (km/s)
/
Latitude / Longitude
Inclination (degrees)
Orbital Period (minutes)
Azimuth
Elevation
Range (km)
Doppler Factor

Next 0 passes for location: London (51.5072 / 0.1276)

Sorry there are no passes over London.
DLR-TUBSAT